1531033201.17,59641,19.75,74106.3,16.69,-7.23,-15.75,0,*7A
1531033202.37,59642,19.75,74106.0,16.65,-6.39,-15.07,0,*7A
1531033203.58,59643,19.75,74102.5,16.65,-6.55,-15.25,0,*71
1531033204.78,59644,19.75,74106.8,16.65,-6.51,-15.15,0,*71
1531033206.02,59645,19.75,74100.3,16.67,-6.85,-15.49,0,*72
1531033207.27,59646,19.75,74106.0,16.63,-6.59,-15.35,0,*7F
1531033208.52,59647,19.75,74106.8,16.63,-7.11,-16.13,0,*74
1531033209.74,59648,19.75,74106.3,16.63,-6.69,-15.71,0,*72
1531033210.97,59649,19.75,74106.0,16.61,-6.93,-16.03,0,*72
1531033212.21,59650,19.75,74106.0,16.61,-7.05,-16.31,0,*75
1531033213.44,59651,19.75,74104.5,16.55,-7.15,-16.55,0,*70
1531033214.7,59652,19.75,74106.0,16.59,-5.97,-15.35,0,*72
1531033215.96,59653,19.75,74104.0,16.59,-5.85,-15.25,0,*71
1531033217.23,59654,19.75,74106.8,16.59,-5.97,-15.39,0,*78
1531033218.48,59655,19.75,74108.0,16.59,-5.51,-14.93,0,*72
1531033219.73,59656,19.75,74104.5,16.59,-5.27,-14.61,0,*7D
1531033220.96,59657,19.75,74104.5,16.59,-6.39,-16.03,0,*76
1531033222.21,59658,19.75,74100.8,16.59,-6.23,-15.67,0,*73
1531033223.49,59659,19.75,74106.0,16.59,-5.85,-15.21,0,*7F
1531033224.77,59660,19.75,74106.5,16.55,-6.23,-15.57,0,*77
1531033226.0,59661,19.75,74104.8,16.55,-6.35,-15.71,0,*75
1531033227.23,59662,19.75,74106.8,16.55,-6.55,-15.99,0,*76
1531033228.45,59663,19.75,74106.3,16.55,-6.77,-15.99,0,*77
1531033229.71,59664,19.75,74106.3,16.55,-6.13,-15.21,0,*71
1531033230.92,59665,19.75,74104.5,16.53,-5.73,-14.69,0,*7E
1531033232.2,59666,19.75,74106.3,16.55,-5.65,-14.55,0,*73
1531033233.44,59667,19.75,74108.0,16.55,-6.27,-15.07,0,*71
1531033234.68,59668,19.75,74104.5,16.59,-6.73,-15.49,0,*79
1531033235.93,59669,19.75,74104.5,16.55,-6.55,-15.21,0,*7E
1531033237.19,59670,19.75,74106.3,16.59,-7.01,-15.53,0,*7F
1531033238.44,59671,19.75,74106.8,16.55,-7.83,-16.23,0,*7C
1531033239.72,59672,19.75,74104.5,16.55,-7.01,-15.21,0,*74
1531033240.97,59673,19.75,74104.5,16.55,-7.01,-15.11,0,*76
1531033242.23,59674,19.75,74104.3,16.55,-7.57,-15.53,0,*74
1531033243.51,59675,19.75,74106.0,16.55,-7.69,-15.43,0,*79
1531033244.74,59676,19.75,74104.0,16.59,-7.83,-15.53,0,*73
1531033246.0,59677,19.75,74106.3,16.59,-8.89,-16.69,0,*7D
1531033247.23,59678,19.75,74104.5,16.55,-8.37,-15.95,0,*7B
1531033248.5,59679,19.75,74108.0,16.55,-8.81,-16.27,0,*7D
1531033249.78,59680,19.75,74106.3,16.55,-8.81,-16.27,0,*7B
1531033251.05,59681,19.75,74104.5,16.55,-8.81,-16.13,0,*7D
1531033252.31,59682,19.75,74106.8,16.55,-8.89,-16.09,0,*7D
1531033253.59,59683,19.75,74106.5,16.55,-9.11,-16.23,0,*74
1531033254.86,59684,19.75,74106.8,16.51,-9.27,-16.17,0,*75
1531033256.13,59685,19.75,74106.8,16.51,-9.49,-16.51,0,*7E
1531033257.37,59686,19.75,74104.5,16.51,-9.79,-16.79,0,*74
1531033258.59,59687,19.75,74106.8,16.51,-9.97,-16.93,0,*71
1531033259.88,59688,19.75,74106.3,16.51,-10.63,-17.55,0,*46
1531033261.11,59689,19.75,74108.5,16.47,-10.09,-16.83,0,*46
1531033262.36,59690,19.75,74106.8,16.47,-10.49,-17.25,0,*47
1531033263.59,59691,19.75,74108.5,16.45,-11.37,-18.17,0,*42
1531033264.82,59692,19.75,74106.0,16.43,-12.15,-19.03,0,*40
1531033266.05,59693,19.75,74104.3,16.43,-11.97,-18.69,0,*45
1531033267.34,59694,19.75,74104.0,16.37,-11.85,-18.31,0,*4F
1531033268.62,59695,19.75,74104.5,16.33,-12.07,-18.55,0,*41
1531033269.88,59696,19.75,74102.3,16.33,-11.55,-18.17,0,*40
1531033271.14,59697,19.75,74106.8,16.29,-11.11,-17.41,0,*46
1531033272.38,59698,19.75,74104.5,16.29,-10.89,-16.97,0,*43
1531033273.63,59699,19.75,74106.0,16.29,-10.53,-16.65,0,*48
1531033274.86,59700,19.75,74104.0,16.29,-10.53,-16.79,0,*44
1531033276.1,59701,19.75,74106.8,16.29,-11.23,-17.35,0,*4A
1531033277.32,59702,19.75,74106.0,16.27,-10.53,-16.59,0,*4A
1531033278.55,59703,19.75,74106.0,16.23,-11.15,-17.17,0,*47
1531033279.79,59704,19.75,74108.3,16.23,-11.41,-17.45,0,*46
1531033281.02,59705,19.75,74104.3,16.23,-11.07,-16.97,0,*4B
1531033282.28,59706,19.75,74106.3,16.21,-10.71,-16.55,0,*44
1531033283.54,59707,19.75,74110.3,16.23,-11.37,-17.25,0,*42
1531033284.78,59708,19.75,74104.0,16.19,-11.45,-17.21,0,*45
1531033286.02,59709,19.75,74104.8,16.19,-11.59,-17.49,0,*47
1531033287.28,59710,19.75,74108.3,16.19,-11.85,-17.63,0,*46
1531033288.54,59711,19.75,74106.0,16.17,-12.03,-17.79,0,*4F
1531033289.78,59712,19.75,74106.3,16.17,-11.23,-16.83,0,*49
1531033291.01,59713,19.75,74108.0,16.17,-11.11,-16.83,0,*49
1531033292.27,59714,19.75,74108.3,16.15,-11.51,-17.11,0,*42
1531033293.5,59715,19.75,74104.5,16.15,-11.37,-16.83,0,*49
1531033294.71,59716,19.75,74106.8,16.15,-11.19,-16.79,0,*43
1531033295.95,59717,19.75,74104.5,16.15,-11.29,-16.83,0,*44
1531033297.2,59718,19.75,74106.0,16.13,-10.97,-16.41,0,*47
1531033298.45,59719,19.75,74108.8,16.13,-10.89,-16.27,0,*49
1531033299.71,59720,19.75,74106.0,16.13,-10.75,-16.03,0,*46
1531033300.95,59721,19.75,74108.0,16.13,-11.01,-16.41,0,*43
1531033302.19,59722,19.75,74104.8,16.13,-11.11,-16.41,0,*41
1531033303.43,59723,19.75,74106.8,16.13,-11.45,-16.83,0,*4F
1531033304.68,59724,19.75,74106.8,16.13,-11.45,-16.83,0,*48
1531033305.94,59725,19.75,74104.8,16.13,-11.93,-17.31,0,*4A
1531033307.16,59726,19.75,74104.8,16.11,-12.07,-17.31,0,*45
1531033308.41,59727,19.75,74108.0,16.07,-11.89,-17.11,0,*44
1531033309.64,59728,19.75,74104.3,16.07,-12.15,-17.35,0,*4B
1531033310.9,59729,19.75,74106.0,16.07,-11.97,-17.07,0,*42
1531033312.17,59730,19.75,74106.3,16.05,-12.07,-17.11,0,*45
1531033313.44,59731,19.75,74106.0,16.05,-12.15,-17.25,0,*40
1531033314.66,59732,19.75,74104.0,16.03,-12.07,-17.31,0,*43
1531033315.92,59733,19.75,74104.3,16.03,-11.93,-17.03,0,*4D
1531033317.17,59734,19.75,74106.5,16.03,-11.93,-17.03,0,*4A
1531033318.43,59735,19.75,74104.3,16.03,-11.93,-17.07,0,*4F
1531033319.67,59736,19.75,74106.5,16.01,-12.83,-18.21,0,*47
1531033320.9,59737,19.75,74106.3,16.01,-13.23,-18.65,0,*4D
1531033322.14,59738,19.75,74104.3,15.97,-13.15,-18.35,0,*4E
1531033323.39,59739,19.75,74106.8,15.97,-13.33,-18.65,0,*4E
1531033324.64,59740,19.75,74106.5,15.93,-12.97,-18.35,0,*4E
1531033325.88,59741,19.75,74106.3,15.93,-12.83,-18.11,0,*4C
1531033327.13,59742,19.75,74106.0,15.93,-12.57,-17.87,0,*46
1531033328.35,59743,19.75,74106.0,15.91,-12.39,-17.63,0,*47
1531033329.57,59744,19.75,74104.0,15.91,-12.39,-17.63,0,*40
1531033330.84,59745,19.75,74106.8,15.89,-12.15,-17.25,0,*44
1531033332.11,59746,19.75,74104.0,15.85,-12.35,-17.45,0,*4F
1531033333.36,59747,19.75,74106.0,15.85,-12.61,-17.73,0,*4A
1531033334.61,59748,19.75,74104.0,15.85,-12.21,-17.41,0,*40
1531033335.82,59749,19.75,74104.3,15.83,-12.21,-17.31,0,*40
1531033337.08,59750,19.75,74110.3,15.83,-11.93,-17.03,0,*43
1531033338.33,59751,19.75,74104.0,15.83,-12.07,-17.25,0,*48
1531033339.55,59752,19.75,74106.0,15.83,-12.07,-17.31,0,*4E
1531033340.83,59753,19.75,74104.5,15.81,-11.93,-17.03,0,*42
1531033342.11,59754,19.75,74106.5,15.81,-11.93,-17.11,0,*46
1531033343.39,59755,19.75,74108.5,15.81,-11.89,-17.17,0,*4A
1531033344.64,59756,19.75,74108.5,15.79,-12.11,-17.35,0,*4C
1531033345.9,59757,19.75,74104.0,15.79,-12.29,-17.63,0,*45
1531033347.1,59758,19.75,74106.0,15.77,-12.03,-17.35,0,*4F
1531033348.37,59759,19.75,74106.3,15.75,-12.15,-17.59,0,*41
1531033349.6,59760,19.75,74108.3,15.75,-12.29,-17.73,0,*4C
1531033350.85,59761,19.75,74106.3,15.75,-12.47,-18.01,0,*4F
1531033352.09,59762,19.75,74106.5,15.75,-12.79,-18.45,0,*41
1531033353.32,59763,19.75,74106.3,15.71,-12.97,-18.69,0,*4A
1531033354.58,59764,19.75,74106.5,15.71,-13.83,-19.91,0,*4F
1531033355.83,59765,19.75,74104.3,15.67,-13.87,-19.99,0,*45
1531033357.03,59766,19.75,74106.8,15.61,-13.65,-19.91,0,*44
1531033358.26,59767,19.75,74104.3,15.57,-13.19,-19.31,0,*41
1531033359.47,59768,19.75,74106.0,15.57,-13.07,-19.37,0,*47
1531033360.72,59769,19.75,74106.8,15.53,-12.79,-19.27,0,*4B
1531033361.95,59770,19.75,74104.8,15.53,-13.19,-19.61,0,*46
1531033363.16,59771,19.75,74104.8,15.49,-13.15,-19.95,0,*4B
1531033364.38,59772,19.75,74104.0,15.47,-12.97,-19.85,0,*4C
1531033365.61,59773,19.75,74106.0,15.47,-12.57,-19.51,0,*48
1531033366.86,59774,19.75,74104.8,15.39,-12.53,-19.61,0,*41
1531033368.09,59775,19.75,74110.0,15.39,-12.57,-19.95,0,*4F
1531033369.32,59776,19.75,74104.5,15.35,-11.85,-19.37,0,*44
1531033370.53,59777,19.75,74108.3,15.31,-10.97,-18.73,0,*42
1531033371.76,59778,19.75,74104.3,15.31,-10.23,-18.31,0,*44
1531033372.98,59779,19.75,74108.5,15.31,-9.83,-18.21,0,*76
1531033374.2,59780,19.75,74108.5,15.29,-9.71,-18.41,0,*72
1531033375.42,59781,19.75,74104.3,15.29,-9.71,-18.83,0,*7D
1531033376.63,59782,19.75,74106.8,15.27,-9.53,-18.83,0,*70
1531033377.83,59783,19.75,74104.3,15.23,-8.97,-18.73,0,*73
1531033379.08,59784,19.75,74106.0,15.25,-8.59,-18.35,0,*72
1531033380.33,59785,19.75,74104.5,15.17,-8.81,-18.99,0,*71
1531033381.54,59786,19.75,74110.5,15.17,-8.67,-18.99,0,*7A
1531033382.77,59787,19.75,74106.8,15.13,-7.83,-18.31,0,*78
1531033384.05,59788,19.75,74106.5,15.11,-7.65,-18.31,0,*7D
1531033385.29,59789,19.75,74106.0,15.11,-7.65,-18.45,0,*7F
1531033386.51,59790,19.75,74106.3,15.09,-8.21,-19.31,0,*73
1531033387.74,59791,19.75,74108.0,15.07,-8.41,-19.51,0,*7C
1531033388.99,59792,19.75,74104.8,15.03,-8.21,-19.41,0,*7C
1531033390.21,59793,19.75,74106.5,15.01,-7.99,-19.37,0,*72
1531033391.47,59794,19.75,74108.3,14.95,-8.11,-19.47,0,*71
1531033392.72,59795,19.75,74104.5,14.95,-8.67,-20.19,0,*70
1531033393.96,59796,19.75,74104.8,14.91,-7.83,-19.23,0,*71
1531033395.19,59797,19.75,74104.5,14.89,-6.89,-18.01,0,*73
1531033396.39,59798,19.75,74106.5,14.89,-6.77,-17.87,0,*7C
1531033397.62,59799,19.75,74108.3,14.87,-7.19,-18.41,0,*7F
1531033398.89,59800,19.75,74106.5,14.87,-7.31,-18.55,0,*7F
1531033400.11,59801,19.75,74104.3,14.85,-7.27,-18.45,0,*7A
1531033401.38,59802,19.75,74106.0,14.83,-6.97,-18.01,0,*75
1531033402.62,59803,19.75,74110.5,14.83,-7.49,-18.59,0,*7B
1531033403.84,59804,19.75,74108.0,14.79,-8.67,-19.91,0,*7F
1531033405.09,59805,19.75,74110.0,14.79,-7.99,-19.13,0,*7A
1531033406.33,59806,19.75,74108.5,14.75,-8.29,-19.31,0,*71
1531033407.58,59807,19.75,74106.8,14.71,-9.19,-20.35,0,*78
1531033408.84,59808,19.75,74102.3,14.69,-9.15,-20.15,0,*70
1531033410.03,59809,19.75,74106.0,14.65,-8.67,-19.47,0,*74
1531033411.23,59810,19.75,74108.8,14.65,-8.41,-19.17,0,*7D
1531033412.42,59811,19.75,74110.0,14.65,-8.37,-18.99,0,*7A
1531033413.64,59812,19.75,74104.8,14.63,-8.45,-19.07,0,*7C
1531033414.87,59813,19.75,74104.3,14.61,-8.85,-19.65,0,*77
1531033416.12,59814,19.75,74108.3,14.59,-9.19,-19.81,0,*75
1531033417.34,59815,19.75,74108.3,14.57,-9.49,-20.09,0,*75
1531033418.57,59816,19.75,74108.3,14.55,-8.97,-19.37,0,*71
1531033419.82,59817,19.75,74106.8,14.55,-9.11,-19.51,0,*7F
1531033421.07,59818,19.75,74106.3,14.49,-8.89,-19.23,0,*78
1531033422.32,59819,19.75,74106.0,14.49,-8.51,-18.73,0,*78
1531033423.54,59820,19.75,74106.0,14.47,-7.83,-18.01,0,*79
1531033424.74,59821,19.75,74108.8,14.47,-7.83,-17.87,0,*79
1531033425.93,59822,19.75,74110.3,14.47,-8.21,-18.21,0,*7E
1531033427.13,59823,19.75,74106.0,14.47,-8.55,-18.49,0,*72
1531033428.35,59824,19.75,74106.0,14.45,-8.63,-18.65,0,*7C
1531033429.57,59825,19.75,74104.8,14.45,-8.37,-18.41,0,*7A
1531033430.79,59826,19.75,74108.5,14.45,-8.25,-18.17,0,*79
1531033432.01,59827,19.75,74110.8,14.43,-7.91,-17.69,0,*78
1531033433.2,59828,19.75,74104.8,14.43,-8.41,-18.25,0,*72
1531033434.4,59829,19.75,74108.5,14.43,-9.27,-19.17,0,*72
1531033435.66,59830,19.75,74106.5,14.41,-9.83,-19.65,0,*73
1531033436.87,59831,19.75,74108.8,14.39,-10.23,-19.99,0,*4C
1531033438.14,59832,19.75,74110.5,14.37,-9.61,-19.41,0,*7A
1531033439.38,59833,19.75,74108.0,14.35,-9.11,-18.59,0,*76
1531033440.6,59834,19.75,74106.0,14.35,-9.23,-18.89,0,*7D
1531033441.85,59835,19.75,74108.5,14.33,-9.89,-19.61,0,*7D
1531033443.05,59836,19.75,74106.5,14.31,-10.05,-19.95,0,*4B
1531033444.28,59837,19.75,74108.3,14.27,-9.15,-18.69,0,*76
1531033445.56,59838,19.75,74108.0,14.25,-9.37,-18.93,0,*7E
1531033446.82,59839,19.75,74108.3,14.25,-8.93,-18.35,0,*7C
1531033448.05,59840,19.75,74104.0,14.23,-10.19,-19.81,0,*41
1531033449.28,59841,19.75,74106.8,14.23,-10.57,-20.19,0,*41
1531033450.48,59842,19.75,74108.3,14.17,-10.45,-19.95,0,*48
1531033451.71,59843,19.75,74108.8,14.17,-10.79,-20.29,0,*4B
1531033452.9,59844,19.75,74104.8,14.17,-10.09,-19.37,0,*4E
1531033454.12,59845,19.75,74106.8,14.13,-9.31,-18.55,0,*7D
1531033455.34,59846,19.75,74104.5,14.13,-9.37,-18.69,0,*77
1531033456.58,59847,19.75,74106.8,14.13,-10.15,-19.57,0,*42
1531033457.79,59848,19.75,74108.0,14.11,-9.67,-19.07,0,*77
1531033459.01,59849,19.75,74104.8,14.09,-8.75,-17.97,0,*7A
1531033460.22,59850,19.75,74108.0,14.09,-8.33,-17.55,0,*7E
1531033461.45,59851,19.75,74104.3,14.05,-8.37,-17.45,0,*76
1531033462.68,59852,19.75,74104.0,14.05,-8.37,-17.41,0,*71
1531033463.89,59853,19.75,74104.5,14.05,-8.33,-17.41,0,*74
1531033465.11,59854,19.75,74104.8,14.09,-8.33,-17.25,0,*7D
1531033466.34,59855,19.75,74104.3,14.11,-8.03,-16.93,0,*7A
1531033467.57,59856,19.75,74106.5,14.11,-8.41,-17.35,0,*72
1531033468.81,59857,19.75,74106.8,14.11,-8.41,-17.25,0,*72
1531033470.03,59858,19.75,74104.8,14.09,-8.29,-17.21,0,*7E
1531033471.24,59859,19.75,74106.8,14.09,-8.33,-17.11,0,*77
1531033472.44,59860,19.75,74104.0,14.05,-8.37,-17.31,0,*77
1531033473.66,59861,19.75,74104.8,14.05,-8.59,-17.41,0,*79
1531033474.87,59862,19.75,74106.3,14.05,-9.19,-18.07,0,*72
1531033476.07,59863,19.75,74108.3,14.05,-8.93,-17.83,0,*73
1531033477.3,59864,19.75,74106.5,14.03,-9.19,-18.07,0,*72
1531033478.53,59865,19.75,74106.5,14.03,-8.81,-17.49,0,*76
1531033479.76,59866,19.75,74106.5,14.03,-8.55,-17.35,0,*77
1531033480.99,59867,19.75,74104.3,14.01,-8.55,-17.41,0,*77
1531033482.21,59868,19.75,74104.8,14.01,-8.45,-17.41,0,*79
1531033483.47,59869,19.75,74104.3,13.99,-8.41,-17.41,0,*7A
1531033484.66,59870,19.75,74104.3,14.01,-8.33,-17.49,0,*79
1531033485.91,59871,19.75,74104.5,13.97,-7.57,-16.65,0,*72
1531033487.11,59872,19.75,74104.8,13.97,-7.19,-16.37,0,*7C
1531033488.36,59873,19.75,74104.8,13.97,-6.97,-16.13,0,*7C
1531033489.59,59874,19.75,74108.8,13.97,-7.11,-16.27,0,*73
1531033490.79,59875,19.75,74108.0,13.97,-7.11,-16.37,0,*73
1531033492.01,59876,19.75,74104.8,13.97,-7.83,-17.25,0,*79
1531033493.28,59877,19.75,74108.3,13.95,-7.77,-17.45,0,*77
1531033494.53,59878,19.75,74104.8,13.97,-7.99,-17.55,0,*7B
1531033495.76,59879,19.75,74108.8,13.97,-8.07,-17.69,0,*7D
1531033497.03,59880,19.75,74106.5,13.95,-7.91,-17.55,0,*76
1531033498.31,59881,19.75,74106.0,13.95,-7.43,-17.03,0,*7B
1531033499.58,59882,19.75,74108.5,13.91,-7.05,-16.65,0,*7F
1531033500.85,59883,19.75,74104.0,13.95,-6.97,-16.51,0,*77
1531033502.1,59884,19.75,74104.8,13.91,-7.49,-17.03,0,*70
1531033503.36,59885,19.75,74104.8,13.91,-7.77,-17.35,0,*79
1531033504.6,59886,19.75,74104.8,13.91,-7.39,-16.79,0,*79
1531033505.84,59887,19.75,74106.0,13.91,-7.11,-16.59,0,*70
1531033507.04,59888,19.75,74106.5,13.89,-7.23,-16.59,0,*77
1531033508.24,59889,19.75,74108.3,13.89,-7.11,-16.45,0,*7A
1531033509.5,59890,19.75,74104.8,13.85,-7.35,-16.83,0,*72
1531033510.78,59891,19.81,74108.8,13.85,-7.57,-17.11,0,*7D
1531033512.05,59892,19.81,74110.8,13.81,-7.61,-17.03,0,*7C
1531033513.28,59893,19.75,74104.0,13.81,-7.23,-16.59,0,*75
1531033514.56,59894,19.75,74106.5,13.81,-6.93,-16.31,0,*76
1531033515.81,59895,19.75,74108.8,13.81,-6.81,-16.27,0,*73
1531033517.06,59896,19.75,74110.5,13.81,-6.73,-16.17,0,*7E
1531033518.26,59897,19.75,74108.5,13.79,-6.55,-16.03,0,*79
1531033519.54,59898,19.75,74106.0,13.77,-6.23,-15.57,0,*7B
1531033520.78,59899,19.75,74106.0,13.79,-5.93,-15.25,0,*79
1531033522.0,59900,19.75,74108.0,13.79,-5.35,-14.75,0,*70
1531033523.23,59901,19.75,74108.5,13.79,-5.23,-14.61,0,*73
1531033524.48,59902,19.75,74110.0,13.79,-5.15,-14.47,0,*71
1531033525.76,59903,19.75,74104.3,13.81,-5.11,-14.47,0,*73
1531033527.0,59904,19.75,74108.5,13.81,-5.35,-15.01,0,*71
1531033528.25,59905,19.75,74104.8,13.81,-5.39,-15.01,0,*7C
1531033529.53,59906,19.75,74108.0,13.81,-5.81,-15.43,0,*7A
1531033530.78,59907,19.75,74104.8,13.81,-6.01,-15.57,0,*75
1531033532.04,59908,19.75,74108.3,13.77,-6.09,-15.89,0,*78
1531033533.26,59909,19.75,74106.0,13.77,-5.97,-15.63,0,*79
1531033534.52,59910,19.75,74110.8,13.77,-6.31,-16.17,0,*7E
1531033535.76,59911,19.75,74110.3,13.75,-5.55,-15.43,0,*7E
1531033537.01,59912,19.75,74108.3,13.75,-5.19,-15.01,0,*73
1531033538.27,59913,19.75,74104.0,13.77,-5.39,-15.43,0,*74
1531033539.52,59914,19.75,74108.3,13.73,-5.77,-15.71,0,*7C
1531033540.78,59915,19.75,74104.5,13.75,-5.31,-15.35,0,*79
1531033542.04,59916,19.75,74108.0,13.73,-5.35,-15.39,0,*74
1531033543.26,59917,19.75,74106.0,13.71,-5.89,-15.99,0,*7A
1531033544.49,59918,19.75,74104.3,13.69,-5.51,-15.71,0,*7F
1531033545.77,59919,19.75,74104.0,13.69,-5.73,-15.89,0,*79
1531033547.02,59920,19.75,74110.5,13.67,-5.19,-15.43,0,*77
1531033548.28,59921,19.81,74110.0,13.69,-5.15,-15.53,0,*75
1531033549.51,59922,19.75,74104.3,13.69,-5.35,-15.63,0,*77
1531033550.71,59923,19.75,74106.5,13.67,-5.39,-15.67,0,*70
1531033551.99,59924,19.75,74104.8,13.65,-5.07,-15.39,0,*73
1531033553.25,59925,19.75,74106.5,13.67,-5.03,-15.35,0,*78
1531033554.5,59926,19.75,74106.0,13.65,-5.61,-15.95,0,*77
1531033555.79,59927,19.75,74104.8,13.65,-5.07,-15.39,0,*70
1531033556.99,59928,19.75,74106.0,13.59,-6.01,-16.41,0,*79
1531033558.19,59929,19.75,74106.0,13.59,-6.43,-16.93,0,*71
1531033559.39,59930,19.75,74106.3,13.59,-6.43,-16.93,0,*79
1531033560.61,59931,19.81,74110.0,13.57,-6.05,-16.59,0,*72
1531033561.86,59932,19.75,74104.5,13.55,-5.97,-16.51,0,*73
1531033563.11,59933,19.75,74104.8,13.53,-5.61,-16.09,0,*70
1531033564.36,59934,19.75,74106.5,13.51,-6.19,-16.79,0,*7E
1531033565.6,59935,19.75,74108.3,13.51,-7.05,-17.69,0,*73
1531033566.85,59936,19.75,74106.8,13.51,-6.43,-17.21,0,*7F
1531033568.07,59937,19.75,74104.8,13.49,-5.77,-16.41,0,*74
1531033569.29,59938,19.75,74104.0,13.47,-5.51,-16.03,0,*77
1531033570.55,59939,19.75,74106.5,13.47,-5.55,-16.09,0,*78
1531033571.77,59940,19.75,74106.5,13.47,-5.43,-15.95,0,*77
1531033573.03,59941,19.75,74106.3,13.47,-5.51,-16.09,0,*73
1531033574.27,59942,19.75,74106.5,13.45,-5.61,-16.23,0,*79
1531033575.54,59943,19.75,74106.5,13.47,-5.69,-16.31,0,*71
1531033576.8,59944,19.75,74104.8,13.47,-5.93,-16.75,0,*73
1531033578.03,59945,19.75,74104.8,13.47,-6.09,-16.83,0,*7B
1531033579.25,59946,19.75,74106.8,13.45,-6.51,-17.41,0,*78
1531033580.5,59947,19.75,74108.8,13.43,-6.97,-17.73,0,*74
1531033581.72,59948,19.75,74106.5,13.43,-6.13,-16.83,0,*79
1531033582.93,59949,19.75,74108.3,13.41,-7.11,-18.07,0,*7B
1531033584.12,59950,19.75,74106.0,13.41,-7.83,-18.69,0,*70
1531033585.35,59951,19.75,74108.3,13.37,-7.77,-18.73,0,*70
1531033586.54,59952,19.75,74106.3,13.33,-7.83,-18.65,0,*7B
1531033587.76,59953,19.75,74108.3,13.33,-8.07,-19.07,0,*7C
1531033588.97,59954,19.75,74108.0,13.33,-7.91,-18.79,0,*73
1531033590.21,59955,19.75,74108.3,13.29,-7.95,-18.93,0,*79
1531033591.44,59956,19.75,74104.3,13.29,-7.73,-18.65,0,*7B
1531033592.66,59957,19.75,74106.5,13.27,-7.49,-18.41,0,*7B
1531033593.93,59958,19.75,74104.0,13.27,-7.27,-17.97,0,*78
1531033595.15,59959,19.75,74100.0,13.25,-7.39,-18.07,0,*72
1531033596.35,59960,19.75,74104.8,13.25,-7.11,-17.73,0,*7E
1531033597.58,59961,19.75,74108.8,13.25,-6.77,-17.41,0,*7F
1531033598.8,59962,19.75,74104.5,13.23,-6.85,-17.41,0,*77
1531033600.02,59963,19.75,74108.5,13.23,-6.89,-17.41,0,*7A
1531033601.28,59964,19.75,74108.0,13.23,-6.97,-17.45,0,*76
1531033602.55,59965,19.75,74106.8,13.21,-7.05,-17.59,0,*72
1531033603.79,59966,19.81,74110.8,13.21,-7.49,-17.93,0,*7F
1531033605.02,59967,19.75,74108.8,13.23,-7.53,-17.97,0,*73
1531033606.26,59968,19.75,74110.0,13.21,-7.49,-17.93,0,*71
1531033607.51,59969,19.75,74106.0,13.17,-7.39,-17.83,0,*73
1531033608.75,59970,19.81,74108.8,13.17,-7.23,-17.63,0,*7E
1531033609.97,59971,19.75,74106.0,13.19,-7.31,-17.73,0,*73
1531033611.22,59972,19.75,74106.5,13.17,-7.35,-17.83,0,*75
1531033612.46,59973,19.81,74108.3,13.17,-7.61,-18.25,0,*76
1531033613.67,59974,19.75,74108.8,13.17,-8.33,-18.83,0,*75
1531033614.92,59975,19.81,74110.0,13.17,-7.65,-18.11,0,*73
1531033616.15,59976,19.75,74106.8,13.13,-7.53,-17.83,0,*75
1531033617.4,59977,19.75,74106.5,13.13,-7.83,-18.01,0,*7C
1531033618.65,59978,19.81,74110.0,13.13,-7.77,-18.11,0,*79
1531033619.88,59979,19.81,74110.5,13.11,-8.51,-18.65,0,*72
1531033621.11,59980,19.75,74106.5,13.07,-8.93,-19.27,0,*7A
1531033622.39,59981,19.75,74106.3,13.09,-9.37,-19.61,0,*78
1531033623.65,59982,19.75,74108.3,13.07,-9.37,-19.65,0,*71
1531033624.89,59983,19.75,74106.8,13.05,-8.55,-18.59,0,*79
1531033626.12,59984,19.81,74108.8,13.03,-8.29,-18.31,0,*7D
1531033627.4,59985,19.75,74104.5,13.01,-7.73,-17.63,0,*76
1531033628.63,59986,19.75,74104.8,13.01,-7.83,-17.73,0,*7B
1531033629.91,59987,19.75,74106.5,13.01,-7.99,-18.01,0,*7B
1531033631.18,59988,19.81,74108.3,13.01,-7.95,-17.93,0,*7C
1531033632.43,59989,19.75,74106.0,12.99,-7.99,-18.01,0,*75
1531033633.71,59990,19.75,74106.3,13.01,-7.99,-18.01,0,*7D
1531033634.96,59991,19.75,74104.8,13.01,-7.99,-18.07,0,*7A
1531033636.17,59992,19.75,74108.8,12.99,-8.25,-18.21,0,*75
1531033637.39,59993,19.75,74106.0,12.97,-8.25,-18.25,0,*7E
1531033638.62,59994,19.75,74108.5,12.99,-8.11,-18.07,0,*70
1531033639.85,59995,19.75,74104.8,12.97,-8.17,-18.21,0,*7D
1531033641.11,59996,19.75,74106.3,12.97,-8.03,-18.07,0,*7F
1531033642.31,59997,19.81,74110.0,12.95,-8.17,-18.11,0,*7E
1531033643.54,59998,19.81,74110.0,12.95,-7.77,-17.83,0,*7C
1531033644.78,59999,19.75,74106.5,12.97,-8.03,-18.25,0,*70
1531033646.06,60000,19.81,74108.0,12.91,-8.07,-18.31,0,*74
1531033647.33,60001,19.75,74104.8,12.91,-7.65,-17.97,0,*7D
1531033648.58,60002,19.81,74110.8,12.89,-7.65,-17.93,0,*73
1531033649.82,60003,19.75,74106.5,12.91,-7.27,-17.73,0,*73
1531033651.05,60004,19.75,74106.3,12.89,-7.15,-17.59,0,*74
1531033652.31,60005,19.81,74108.8,12.89,-7.05,-17.59,0,*74
1531033653.55,60006,19.75,74104.8,12.89,-7.05,-17.63,0,*7E
1531033654.83,60007,19.81,74108.5,12.87,-6.93,-17.55,0,*7A
1531033656.09,60008,19.75,74104.8,12.87,-6.63,-17.41,0,*7F
1531033657.32,60009,19.75,74104.0,12.85,-6.51,-17.45,0,*79
1531033658.54,60010,19.81,74110.0,12.85,-6.51,-17.45,0,*71
1531033659.74,60011,19.75,74106.5,12.85,-6.51,-17.49,0,*7C
1531033660.96,60012,19.81,74108.5,12.85,-6.69,-17.63,0,*7C
1531033662.19,60013,19.81,74108.0,12.85,-6.63,-17.63,0,*77
1531033663.42,60014,19.81,74108.3,12.85,-6.43,-17.45,0,*76
1531033664.66,60015,19.75,74106.5,12.83,-6.31,-17.21,0,*76
1531033665.89,60016,19.81,74108.8,12.81,-6.47,-17.41,0,*70
1531033667.13,60017,19.75,74106.5,12.81,-6.27,-17.25,0,*75
1531033668.35,60018,19.75,74106.5,12.83,-6.01,-16.97,0,*74
1531033669.6,60019,19.81,74110.0,12.83,-6.05,-17.07,0,*79
1531033670.85,60020,19.81,74108.0,12.81,-6.23,-17.25,0,*75
1531033672.07,60021,19.75,74104.5,12.81,-6.05,-17.17,0,*71
1531033673.31,60022,19.81,74108.8,12.81,-6.23,-17.25,0,*77
1531033674.54,60023,19.75,74104.8,12.81,-6.35,-17.59,0,*7A
1531033675.76,60024,19.81,74110.0,12.81,-6.23,-17.31,0,*74
1531033677.03,60025,19.75,74108.3,12.79,-6.23,-17.41,0,*75
1531033678.27,60026,19.75,74104.8,12.79,-6.39,-17.41,0,*7D
1531033679.48,60027,19.75,74106.3,12.77,-6.51,-17.49,0,*74
1531033680.75,60028,19.75,74104.8,12.79,-6.23,-17.11,0,*7D
1531033681.95,60029,19.75,74108.5,12.77,-6.39,-17.35,0,*7F
1531033683.2,60030,19.75,74104.3,12.77,-6.97,-17.93,0,*7F
1531033684.41,60031,19.81,74108.5,12.77,-6.89,-17.93,0,*71
1531033685.66,60032,19.75,74106.0,12.75,-6.89,-17.79,0,*74
1531033686.89,60033,19.81,74108.0,12.75,-7.19,-18.21,0,*7F
1531033688.1,60034,19.81,74108.3,12.73,-7.39,-18.17,0,*79
1531033689.32,60035,19.81,74108.8,12.73,-7.27,-18.17,0,*77
1531033690.55,60036,19.75,74104.8,12.73,-6.93,-17.69,0,*7C
1531033691.78,60037,19.81,74106.0,12.69,-6.77,-17.45,0,*72
1531033693.02,60038,19.81,74110.3,12.69,-6.63,-17.11,0,*79
1531033694.25,60039,19.81,74110.0,12.69,-6.59,-17.03,0,*72
1531033695.47,60040,19.75,74106.5,12.69,-6.73,-17.17,0,*71
1531033696.72,60041,19.81,74108.5,12.67,-6.89,-17.41,0,*78
1531033698.0,60042,19.75,74106.8,12.67,-7.43,-17.93,0,*73
1531033699.2,60043,19.81,74108.8,12.69,-7.53,-17.87,0,*78
1531033700.43,60044,19.75,74108.8,12.67,-7.53,-17.87,0,*71
1531033701.68,60045,19.75,74106.0,12.67,-7.43,-17.73,0,*7A